Year,Month,Day,Hour,Minute,Value (Times are PST for temperature in C)
2015,01,16,00,00,6.80
2015,01,16,00,01,6.80
2015,01,16,00,02,6.80
2015,01,16,00,03,6.80
2015,01,16,00,04,6.80
2015,01,16,00,05,6.80
2015,01,16,00,06,6.80
2015,01,16,00,07,6.80
2015,01,16,00,08,6.80
2015,01,16,00,09,6.80
2015,01,16,00,10,6.80
2015,01,16,00,11,6.80
2015,01,16,00,12,6.70
2015,01,16,00,13,6.70
2015,01,16,00,14,6.70
2015,01,16,00,15,6.70
2015,01,16,00,16,6.70
2015,01,16,00,17,6.70
2015,01,16,00,18,6.70
2015,01,16,00,19,6.60
2015,01,16,00,20,6.60
2015,01,16,00,21,6.60
2015,01,16,00,22,6.60
2015,01,16,00,23,6.60
2015,01,16,00,24,6.60
2015,01,16,00,25,6.50
2015,01,16,00,26,6.50
2015,01,16,00,27,6.50
2015,01,16,00,28,6.50
2015,01,16,00,29,6.50
2015,01,16,00,30,6.40
2015,01,16,00,31,6.40
2015,01,16,00,32,6.40
2015,01,16,00,33,6.40
2015,01,16,00,34,6.30
2015,01,16,00,35,6.30
2015,01,16,00,36,6.30
2015,01,16,00,37,6.30
2015,01,16,00,38,6.30
2015,01,16,00,39,6.30
2015,01,16,00,40,6.30
2015,01,16,00,41,6.30
2015,01,16,00,42,6.30
2015,01,16,00,43,6.30
2015,01,16,00,44,6.30
2015,01,16,00,45,6.30
2015,01,16,00,46,6.20
2015,01,16,00,47,6.20
2015,01,16,00,48,6.30
2015,01,16,00,49,6.30
2015,01,16,00,50,6.30
2015,01,16,00,51,6.30
2015,01,16,00,52,6.30
2015,01,16,00,53,6.30
2015,01,16,00,54,6.30
2015,01,16,00,55,6.30
2015,01,16,00,56,6.20
2015,01,16,00,57,6.20
2015,01,16,00,58,6.20
2015,01,16,00,59,6.30
2015,01,16,01,00,6.30
2015,01,16,01,01,6.30
2015,01,16,01,02,6.30
2015,01,16,01,03,6.30
2015,01,16,01,04,6.30
2015,01,16,01,05,6.30
2015,01,16,01,06,6.30
2015,01,16,01,07,6.30
2015,01,16,01,08,6.30
2015,01,16,01,09,6.30
2015,01,16,01,10,6.30
2015,01,16,01,11,6.30
2015,01,16,01,12,6.30
2015,01,16,01,13,6.30
2015,01,16,01,14,6.40
2015,01,16,01,15,6.40
2015,01,16,01,16,6.40
2015,01,16,01,17,6.40
2015,01,16,01,18,6.40
2015,01,16,01,19,6.40
2015,01,16,01,20,6.40
2015,01,16,01,21,6.50
2015,01,16,01,22,6.50
2015,01,16,01,23,6.50
2015,01,16,01,24,6.50
2015,01,16,01,25,6.50
2015,01,16,01,26,6.50
2015,01,16,01,27,6.50
2015,01,16,01,28,6.40
2015,01,16,01,29,6.40
2015,01,16,01,30,6.40
2015,01,16,01,31,6.40
2015,01,16,01,32,6.40
2015,01,16,01,33,6.40
2015,01,16,01,34,6.40
2015,01,16,01,35,6.30
2015,01,16,01,36,6.30
2015,01,16,01,37,6.30
2015,01,16,01,38,6.30
2015,01,16,01,39,6.30
2015,01,16,01,40,6.30
2015,01,16,01,41,6.30
2015,01,16,01,42,6.30
2015,01,16,01,43,6.30
2015,01,16,01,44,6.30
2015,01,16,01,45,6.30
2015,01,16,01,46,6.30
2015,01,16,01,47,6.30
2015,01,16,01,48,6.30
2015,01,16,01,49,6.30
2015,01,16,01,50,6.30
2015,01,16,01,51,6.30
2015,01,16,01,52,6.30
2015,01,16,01,53,6.30
2015,01,16,01,54,6.30
2015,01,16,01,55,6.30
2015,01,16,01,56,6.30
2015,01,16,01,57,6.30
2015,01,16,01,58,6.30
2015,01,16,01,59,6.30
2015,01,16,02,00,6.30
2015,01,16,02,01,6.30
2015,01,16,02,02,6.30
2015,01,16,02,03,6.30
2015,01,16,02,04,6.30
2015,01,16,02,05,6.30
2015,01,16,02,06,6.30
2015,01,16,02,07,6.30
2015,01,16,02,08,6.20
2015,01,16,02,09,6.20
2015,01,16,02,10,6.20
2015,01,16,02,11,6.20
2015,01,16,02,12,6.20
2015,01,16,02,13,6.20
2015,01,16,02,14,6.20
2015,01,16,02,15,6.20
2015,01,16,02,16,6.20
2015,01,16,02,17,6.20
2015,01,16,02,18,6.20
2015,01,16,02,19,6.10
2015,01,16,02,20,6.10
2015,01,16,02,21,6.10
2015,01,16,02,22,6.10
2015,01,16,02,23,6.10
2015,01,16,02,24,6.20
2015,01,16,02,25,6.20
2015,01,16,02,26,6.20
2015,01,16,02,27,6.20
2015,01,16,02,28,6.20
2015,01,16,02,29,6.20
2015,01,16,02,30,6.20
2015,01,16,02,31,6.20
2015,01,16,02,32,6.20
2015,01,16,02,33,6.20
2015,01,16,02,34,6.20
2015,01,16,02,35,6.20
2015,01,16,02,36,6.20
2015,01,16,02,37,6.20
2015,01,16,02,38,6.20
2015,01,16,02,39,6.20
2015,01,16,02,40,6.20
2015,01,16,02,41,6.20
2015,01,16,02,42,6.10
2015,01,16,02,43,6.10
2015,01,16,02,44,6.10
2015,01,16,02,45,6.10
2015,01,16,02,46,6.10
2015,01,16,02,47,6.10
2015,01,16,02,48,6.10
2015,01,16,02,49,6.10
2015,01,16,02,50,6.10
2015,01,16,02,51,6.10
2015,01,16,02,52,6.00
2015,01,16,02,53,6.00
2015,01,16,02,54,6.00
2015,01,16,02,55,6.00
2015,01,16,02,56,5.90
2015,01,16,02,57,5.90
2015,01,16,02,58,5.90
2015,01,16,02,59,5.90
2015,01,16,03,00,5.90
2015,01,16,03,01,5.90
2015,01,16,03,02,5.90
2015,01,16,03,03,5.80
2015,01,16,03,04,5.80
2015,01,16,03,05,5.80
2015,01,16,03,06,5.80
2015,01,16,03,07,5.80
2015,01,16,03,08,5.80
2015,01,16,03,09,5.80
2015,01,16,03,10,5.80
2015,01,16,03,11,5.80
2015,01,16,03,12,5.80
2015,01,16,03,13,5.70
2015,01,16,03,14,5.70
2015,01,16,03,15,5.70
2015,01,16,03,16,5.70
2015,01,16,03,17,5.70
2015,01,16,03,18,5.60
2015,01,16,03,19,5.60
2015,01,16,03,20,5.60
2015,01,16,03,21,5.60
2015,01,16,03,22,5.50
2015,01,16,03,23,5.50
2015,01,16,03,24,5.40
2015,01,16,03,25,5.40
2015,01,16,03,26,5.40
2015,01,16,03,27,5.40
2015,01,16,03,28,5.30
2015,01,16,03,29,5.30
2015,01,16,03,30,5.30
2015,01,16,03,31,5.30
2015,01,16,03,32,5.30
2015,01,16,03,33,5.30
2015,01,16,03,34,5.30
2015,01,16,03,35,5.20
2015,01,16,03,36,5.20
2015,01,16,03,37,5.20
2015,01,16,03,38,5.20
2015,01,16,03,39,5.20
2015,01,16,03,40,5.10
2015,01,16,03,41,5.10
2015,01,16,03,42,5.10
2015,01,16,03,43,5.10
2015,01,16,03,44,5.10
2015,01,16,03,45,5.10
2015,01,16,03,46,5.10
2015,01,16,03,47,5.00
2015,01,16,03,48,5.00
2015,01,16,03,49,5.00
2015,01,16,03,50,5.00
2015,01,16,03,51,4.90
2015,01,16,03,52,4.90
2015,01,16,03,53,4.80
2015,01,16,03,54,4.80
2015,01,16,03,55,4.80
2015,01,16,03,56,4.80
2015,01,16,03,57,4.70
2015,01,16,03,58,4.70
2015,01,16,03,59,4.70
2015,01,16,04,00,4.70
2015,01,16,04,01,4.60
2015,01,16,04,02,4.60
2015,01,16,04,03,4.60
2015,01,16,04,04,4.50
2015,01,16,04,05,4.50
2015,01,16,04,06,4.50
2015,01,16,04,07,4.50
2015,01,16,04,08,4.40
2015,01,16,04,09,4.40
2015,01,16,04,10,4.40
2015,01,16,04,11,4.40
2015,01,16,04,12,4.30
2015,01,16,04,13,4.30
2015,01,16,04,14,4.30
2015,01,16,04,15,4.20
2015,01,16,04,16,4.20
2015,01,16,04,17,4.20
2015,01,16,04,18,4.10
2015,01,16,04,19,4.10
2015,01,16,04,20,4.10
2015,01,16,04,21,4.10
2015,01,16,04,22,4.00
2015,01,16,04,23,4.00
2015,01,16,04,24,4.00
2015,01,16,04,25,3.90
2015,01,16,04,26,3.90
2015,01,16,04,27,3.90
2015,01,16,04,28,3.90
2015,01,16,04,29,3.90
2015,01,16,04,30,3.90
2015,01,16,04,31,3.90
2015,01,16,04,32,3.90
2015,01,16,04,33,3.90
2015,01,16,04,34,3.80
2015,01,16,04,35,3.80
2015,01,16,04,36,3.80
2015,01,16,04,37,3.80
2015,01,16,04,38,3.80
2015,01,16,04,39,3.80
2015,01,16,04,40,3.80
2015,01,16,04,41,3.80
2015,01,16,04,42,3.80
2015,01,16,04,43,3.80
2015,01,16,04,44,3.80
2015,01,16,04,45,3.80
2015,01,16,04,46,3.70
2015,01,16,04,47,3.70
2015,01,16,04,48,3.70
2015,01,16,04,49,3.70
2015,01,16,04,50,3.70
2015,01,16,04,51,3.60
2015,01,16,04,52,3.60
2015,01,16,04,53,3.50
2015,01,16,04,54,3.40
2015,01,16,04,55,3.40
2015,01,16,04,56,3.30
2015,01,16,04,57,3.30
2015,01,16,04,58,3.30
2015,01,16,04,59,3.20
2015,01,16,05,00,3.20
2015,01,16,05,01,3.10
2015,01,16,05,02,3.10
2015,01,16,05,03,3.10
2015,01,16,05,04,3.10
2015,01,16,05,05,3.10
2015,01,16,05,06,3.00
2015,01,16,05,07,3.00
2015,01,16,05,08,3.00
2015,01,16,05,09,3.00
2015,01,16,05,10,3.00
2015,01,16,05,11,3.00
2015,01,16,05,12,3.00
2015,01,16,05,13,3.00
2015,01,16,05,14,3.00
2015,01,16,05,15,2.90
2015,01,16,05,16,2.90
2015,01,16,05,17,2.90
2015,01,16,05,18,2.90
2015,01,16,05,19,2.90
2015,01,16,05,20,2.90
2015,01,16,05,21,2.90
2015,01,16,05,22,2.90
2015,01,16,05,23,2.90
2015,01,16,05,24,2.90
2015,01,16,05,25,2.80
2015,01,16,05,26,2.80
2015,01,16,05,27,2.80
2015,01,16,05,28,2.70
2015,01,16,05,29,2.70
2015,01,16,05,30,2.70
2015,01,16,05,31,2.60
2015,01,16,05,32,2.60
2015,01,16,05,33,2.50
2015,01,16,05,34,2.50
2015,01,16,05,35,2.50
2015,01,16,05,36,2.40
2015,01,16,05,37,2.40
2015,01,16,05,38,2.40
2015,01,16,05,39,2.30
2015,01,16,05,40,2.30
2015,01,16,05,41,2.30
2015,01,16,05,42,2.30
2015,01,16,05,43,2.30
2015,01,16,05,44,2.30
2015,01,16,05,45,2.30
2015,01,16,05,46,2.30
2015,01,16,05,47,2.30
2015,01,16,05,48,2.30
2015,01,16,05,49,2.30
2015,01,16,05,50,2.30
2015,01,16,05,51,2.20
2015,01,16,05,52,2.20
2015,01,16,05,53,2.30
2015,01,16,05,54,2.30
2015,01,16,05,55,2.30
2015,01,16,05,56,2.40
2015,01,16,05,57,2.40
2015,01,16,05,58,2.40
2015,01,16,05,59,2.50
2015,01,16,06,00,2.50
2015,01,16,06,01,2.40
2015,01,16,06,02,2.40
2015,01,16,06,03,2.40
2015,01,16,06,04,2.40
2015,01,16,06,05,2.40
2015,01,16,06,06,2.40
2015,01,16,06,07,2.40
2015,01,16,06,08,2.40
2015,01,16,06,09,2.40
2015,01,16,06,10,2.40
2015,01,16,06,11,2.40
2015,01,16,06,12,2.30
2015,01,16,06,13,2.30
2015,01,16,06,14,2.30
2015,01,16,06,15,2.30
2015,01,16,06,16,2.30
2015,01,16,06,17,2.30
2015,01,16,06,18,2.40
2015,01,16,06,19,2.40
2015,01,16,06,20,2.40
2015,01,16,06,21,2.40
2015,01,16,06,22,2.40
2015,01,16,06,23,2.40
2015,01,16,06,24,2.40
2015,01,16,06,25,2.40
2015,01,16,06,26,2.40
2015,01,16,06,27,2.40
2015,01,16,06,28,2.40
2015,01,16,06,29,2.30
2015,01,16,06,30,2.30
2015,01,16,06,31,2.30
2015,01,16,06,32,2.20
2015,01,16,06,33,2.20
2015,01,16,06,34,2.20
2015,01,16,06,35,2.10
2015,01,16,06,36,2.10
2015,01,16,06,37,2.00
2015,01,16,06,38,1.90
2015,01,16,06,39,1.90
2015,01,16,06,40,1.90
2015,01,16,06,41,1.90
2015,01,16,06,42,1.80
2015,01,16,06,43,1.80
2015,01,16,06,44,1.70
2015,01,16,06,45,1.70
2015,01,16,06,46,1.60
2015,01,16,06,47,1.60
2015,01,16,06,48,1.50
2015,01,16,06,49,1.40
2015,01,16,06,50,1.30
2015,01,16,06,51,1.30
2015,01,16,06,52,1.20
2015,01,16,06,53,1.20
2015,01,16,06,54,1.20
2015,01,16,06,55,1.10
2015,01,16,06,56,1.10
2015,01,16,06,57,1.10
2015,01,16,06,58,1.00
2015,01,16,06,59,1.00
2015,01,16,07,00,1.00
2015,01,16,07,01,1.00
2015,01,16,07,02,0.90
2015,01,16,07,03,0.90
2015,01,16,07,04,0.90
2015,01,16,07,05,0.90
2015,01,16,07,06,0.90
2015,01,16,07,07,0.90
2015,01,16,07,08,0.90
2015,01,16,07,09,0.90
2015,01,16,07,10,0.80
2015,01,16,07,11,0.80
2015,01,16,07,12,0.80
2015,01,16,07,13,0.80
2015,01,16,07,14,0.80
2015,01,16,07,15,0.80
2015,01,16,07,16,0.80
2015,01,16,07,17,0.70
2015,01,16,07,18,0.70
2015,01,16,07,19,0.70
2015,01,16,07,20,0.70
2015,01,16,07,21,0.70
2015,01,16,07,22,0.70
2015,01,16,07,23,0.70
2015,01,16,07,24,0.70
2015,01,16,07,25,0.70
2015,01,16,07,26,0.70
2015,01,16,07,27,0.60
2015,01,16,07,28,0.60
2015,01,16,07,29,0.60
2015,01,16,07,30,0.60
2015,01,16,07,31,0.60
2015,01,16,07,32,0.60
2015,01,16,07,33,0.50
2015,01,16,07,34,0.50
2015,01,16,07,35,0.50
2015,01,16,07,36,0.50
2015,01,16,07,37,0.50
2015,01,16,07,38,0.50
2015,01,16,07,39,0.50
2015,01,16,07,40,0.40
2015,01,16,07,41,0.40
2015,01,16,07,42,0.40
2015,01,16,07,43,0.40
2015,01,16,07,44,0.40
2015,01,16,07,45,0.40
2015,01,16,07,46,0.40
2015,01,16,07,47,0.40
2015,01,16,07,48,0.40
2015,01,16,07,49,0.40
2015,01,16,07,50,0.40
2015,01,16,07,51,0.40
2015,01,16,07,52,0.40
2015,01,16,07,53,0.40
2015,01,16,07,54,0.40
2015,01,16,07,55,0.30
2015,01,16,07,56,0.30
2015,01,16,07,57,0.30
2015,01,16,07,58,0.20
2015,01,16,07,59,0.20
2015,01,16,08,00,0.20
2015,01,16,08,01,0.20
2015,01,16,08,02,0.10
2015,01,16,08,03,0.10
2015,01,16,08,04,0.10
2015,01,16,08,05,0.20
2015,01,16,08,06,0.20
2015,01,16,08,07,0.20
2015,01,16,08,08,0.20
2015,01,16,08,09,0.20
2015,01,16,08,10,0.20
2015,01,16,08,11,0.20
2015,01,16,08,12,0.30
2015,01,16,08,13,0.30
2015,01,16,08,14,0.30
2015,01,16,08,15,0.20
2015,01,16,08,16,0.20
2015,01,16,08,17,0.20
2015,01,16,08,18,0.20
2015,01,16,08,19,0.20
2015,01,16,08,20,0.20
2015,01,16,08,21,0.20
2015,01,16,08,22,0.20
2015,01,16,08,23,0.30
2015,01,16,08,24,0.30
2015,01,16,08,25,0.30
2015,01,16,08,26,0.30
2015,01,16,08,27,0.20
2015,01,16,08,28,0.20
2015,01,16,08,29,0.20
2015,01,16,08,30,0.20
2015,01,16,08,31,0.20
2015,01,16,08,32,0.20
2015,01,16,08,33,0.20
2015,01,16,08,34,0.20
2015,01,16,08,35,0.20
2015,01,16,08,36,0.20
2015,01,16,08,37,0.10
2015,01,16,08,38,0.10
2015,01,16,08,39,0.20
2015,01,16,08,40,0.20
2015,01,16,08,41,0.20
2015,01,16,08,42,0.20
2015,01,16,08,43,0.20
2015,01,16,08,44,0.20
2015,01,16,08,45,0.30
2015,01,16,08,46,0.30
2015,01,16,08,47,0.30
2015,01,16,08,48,0.40
2015,01,16,08,49,0.50
2015,01,16,08,50,0.50
2015,01,16,08,51,0.60
2015,01,16,08,52,0.60
2015,01,16,08,53,0.70
2015,01,16,08,54,0.80
2015,01,16,08,55,0.80
2015,01,16,08,56,0.90
2015,01,16,08,57,0.90
2015,01,16,08,58,0.90
2015,01,16,08,59,0.90
2015,01,16,09,00,0.80
2015,01,16,09,01,0.80
2015,01,16,09,02,0.80
2015,01,16,09,03,0.70
2015,01,16,09,04,0.70
2015,01,16,09,05,0.60
2015,01,16,09,06,0.60
2015,01,16,09,07,0.60
2015,01,16,09,08,0.60
2015,01,16,09,09,0.60
2015,01,16,09,10,0.70
2015,01,16,09,11,0.70
2015,01,16,09,12,0.70
2015,01,16,09,13,0.70
2015,01,16,09,14,0.80
2015,01,16,09,15,0.80
2015,01,16,09,16,0.80
2015,01,16,09,17,0.80
2015,01,16,09,18,0.80
2015,01,16,09,19,0.90
2015,01,16,09,20,0.90
2015,01,16,09,21,0.90
2015,01,16,09,22,0.90
2015,01,16,09,23,0.90
2015,01,16,09,24,0.90
2015,01,16,09,25,0.90
2015,01,16,09,26,0.90
2015,01,16,09,27,0.90
2015,01,16,09,28,0.90
2015,01,16,09,29,0.90
2015,01,16,09,30,1.00
2015,01,16,09,31,1.00
2015,01,16,09,32,1.00
2015,01,16,09,33,1.00
2015,01,16,09,34,1.00
2015,01,16,09,35,1.00
2015,01,16,09,36,1.00
2015,01,16,09,37,1.00
2015,01,16,09,38,1.10
2015,01,16,09,39,1.10
2015,01,16,09,40,1.10
2015,01,16,09,41,1.10
2015,01,16,09,42,1.10
2015,01,16,09,43,1.20
2015,01,16,09,44,1.20
2015,01,16,09,45,1.20
2015,01,16,09,46,1.30
2015,01,16,09,47,1.30
2015,01,16,09,48,1.40
2015,01,16,09,49,1.40
2015,01,16,09,50,1.50
2015,01,16,09,51,1.50
2015,01,16,09,52,1.60
2015,01,16,09,53,1.60
2015,01,16,09,54,1.60
2015,01,16,09,55,1.60
2015,01,16,09,56,1.60
2015,01,16,09,57,1.60
2015,01,16,09,58,1.60
2015,01,16,09,59,1.60
2015,01,16,10,00,1.60
2015,01,16,10,01,1.70
2015,01,16,10,02,1.70
2015,01,16,10,03,1.70
2015,01,16,10,04,1.70
2015,01,16,10,05,1.80
2015,01,16,10,06,1.80
2015,01,16,10,07,1.90
2015,01,16,10,08,1.90
2015,01,16,10,09,2.00
2015,01,16,10,10,2.10
2015,01,16,10,11,2.20
2015,01,16,10,12,2.30
2015,01,16,10,13,2.30
2015,01,16,10,14,2.40
2015,01,16,10,15,2.40
2015,01,16,10,16,2.50
2015,01,16,10,17,2.50
2015,01,16,10,18,2.50
2015,01,16,10,19,2.50
2015,01,16,10,20,2.50
2015,01,16,10,21,2.50
2015,01,16,10,22,2.50
2015,01,16,10,23,2.50
2015,01,16,10,24,2.60
2015,01,16,10,25,2.60
2015,01,16,10,26,2.60
2015,01,16,10,27,2.60
2015,01,16,10,28,2.70
2015,01,16,10,29,2.70
2015,01,16,10,30,2.70
2015,01,16,10,31,2.80
2015,01,16,10,32,2.80
2015,01,16,10,33,2.90
2015,01,16,10,34,2.90
2015,01,16,10,35,3.00
2015,01,16,10,36,3.00
2015,01,16,10,37,3.10
2015,01,16,10,38,3.10
2015,01,16,10,39,3.20
2015,01,16,10,40,3.20
2015,01,16,10,41,3.30
2015,01,16,10,42,3.30
2015,01,16,10,43,3.30
2015,01,16,10,44,3.40
2015,01,16,10,45,3.40
2015,01,16,10,46,3.50
2015,01,16,10,47,3.50
2015,01,16,10,48,3.60
2015,01,16,10,49,3.60
2015,01,16,10,50,3.70
2015,01,16,10,51,3.70
2015,01,16,10,52,3.80
2015,01,16,10,53,3.90
2015,01,16,10,54,4.00
2015,01,16,10,55,4.10
2015,01,16,10,56,4.20
2015,01,16,10,57,4.20
2015,01,16,10,58,4.30
2015,01,16,10,59,4.30
2015,01,16,11,00,4.40
2015,01,16,11,01,4.50
2015,01,16,11,02,4.50
2015,01,16,11,03,4.60
2015,01,16,11,04,4.60
2015,01,16,11,05,4.70
2015,01,16,11,06,4.80
2015,01,16,11,07,4.80
2015,01,16,11,08,4.90
2015,01,16,11,09,5.00
2015,01,16,11,10,5.10
2015,01,16,11,11,5.10
2015,01,16,11,12,5.20
2015,01,16,11,13,5.20
2015,01,16,11,14,5.30
2015,01,16,11,15,5.40
2015,01,16,11,16,5.50
2015,01,16,11,17,5.60
2015,01,16,11,18,5.70
2015,01,16,11,19,5.80
2015,01,16,11,20,5.80
2015,01,16,11,21,5.90
2015,01,16,11,22,6.00
2015,01,16,11,23,6.10
2015,01,16,11,24,6.20
2015,01,16,11,25,6.30
2015,01,16,11,26,6.40
2015,01,16,11,27,6.50
2015,01,16,11,28,6.60
2015,01,16,11,29,6.70
2015,01,16,11,30,6.70
2015,01,16,11,31,6.80
2015,01,16,11,32,6.80
2015,01,16,11,33,6.90
2015,01,16,11,34,7.00
2015,01,16,11,35,7.10
2015,01,16,11,36,7.10
2015,01,16,11,37,7.20
2015,01,16,11,38,7.30
2015,01,16,11,39,7.30
2015,01,16,11,40,7.40
2015,01,16,11,41,7.40
2015,01,16,11,42,7.50
2015,01,16,11,43,7.60
2015,01,16,11,44,7.60
2015,01,16,11,45,7.70
2015,01,16,11,46,7.80
2015,01,16,11,47,7.80
2015,01,16,11,48,7.90
2015,01,16,11,49,7.90
2015,01,16,11,50,7.90
2015,01,16,11,51,8.00
2015,01,16,11,52,8.00
2015,01,16,11,53,8.10
2015,01,16,11,54,8.10
2015,01,16,11,55,8.20
2015,01,16,11,56,8.20
2015,01,16,11,57,8.30
2015,01,16,11,58,8.30
2015,01,16,11,59,8.30
2015,01,16,12,00,8.40
2015,01,16,12,01,8.40
2015,01,16,12,02,8.40
2015,01,16,12,03,8.40
2015,01,16,12,04,8.40
2015,01,16,12,05,8.50
2015,01,16,12,06,8.50
2015,01,16,12,07,8.60
2015,01,16,12,08,8.60
2015,01,16,12,09,8.60
2015,01,16,12,10,8.60
2015,01,16,12,11,8.60
2015,01,16,12,12,8.70
2015,01,16,12,13,8.70
2015,01,16,12,14,8.70
2015,01,16,12,15,8.70
2015,01,16,12,16,8.70
2015,01,16,12,17,8.70
2015,01,16,12,18,8.70
2015,01,16,12,19,8.70
2015,01,16,12,20,8.70
2015,01,16,12,21,8.80
2015,01,16,12,22,8.80
2015,01,16,12,23,8.80
2015,01,16,12,24,8.80
2015,01,16,12,25,8.90
2015,01,16,12,26,8.90
2015,01,16,12,27,8.90
2015,01,16,12,28,8.90
2015,01,16,12,29,9.00
2015,01,16,12,30,9.00
2015,01,16,12,31,9.10
2015,01,16,12,32,9.10
2015,01,16,12,33,9.10
2015,01,16,12,34,9.20
2015,01,16,12,35,9.20
2015,01,16,12,36,9.20
2015,01,16,12,37,9.30
2015,01,16,12,38,9.30
2015,01,16,12,39,9.30
2015,01,16,12,40,9.40
2015,01,16,12,41,9.40
2015,01,16,12,42,9.40
2015,01,16,12,43,9.40
2015,01,16,12,44,9.40
2015,01,16,12,45,9.40
2015,01,16,12,46,9.40
2015,01,16,12,47,9.40
2015,01,16,12,48,9.50
2015,01,16,12,49,9.50
2015,01,16,12,50,9.50
2015,01,16,12,51,9.60
2015,01,16,12,52,9.60
2015,01,16,12,53,9.60
2015,01,16,12,54,9.70
2015,01,16,12,55,9.70
2015,01,16,12,56,9.80
2015,01,16,12,57,9.80
2015,01,16,12,58,9.80
2015,01,16,12,59,9.80
2015,01,16,13,00,9.80
2015,01,16,13,01,9.80
2015,01,16,13,02,9.80
2015,01,16,13,03,9.80
2015,01,16,13,04,9.80
2015,01,16,13,05,9.80
2015,01,16,13,06,9.80
2015,01,16,13,07,9.80
2015,01,16,13,08,9.80
2015,01,16,13,09,9.80
2015,01,16,13,10,9.80
2015,01,16,13,11,9.80
2015,01,16,13,12,9.80
2015,01,16,13,13,9.80
2015,01,16,13,14,9.80
2015,01,16,13,15,9.80
2015,01,16,13,16,9.80
2015,01,16,13,17,9.80
2015,01,16,13,18,9.80
2015,01,16,13,19,9.80
2015,01,16,13,20,9.80
2015,01,16,13,21,9.80
2015,01,16,13,22,9.80
2015,01,16,13,23,9.80
2015,01,16,13,24,9.80
2015,01,16,13,25,9.80
2015,01,16,13,26,9.80
2015,01,16,13,27,9.80
2015,01,16,13,28,9.90
2015,01,16,13,29,9.90
2015,01,16,13,30,9.80
2015,01,16,13,31,9.80
2015,01,16,13,32,9.90
2015,01,16,13,33,9.90
2015,01,16,13,34,9.90
2015,01,16,13,35,9.80
2015,01,16,13,36,9.80
2015,01,16,13,37,9.80
2015,01,16,13,38,9.80
2015,01,16,13,39,9.80
2015,01,16,13,40,9.80
2015,01,16,13,41,9.70
2015,01,16,13,42,9.70
2015,01,16,13,43,9.70
2015,01,16,13,44,9.70
2015,01,16,13,45,9.70
2015,01,16,13,46,9.70
2015,01,16,13,47,9.70
2015,01,16,13,48,9.70
2015,01,16,13,49,9.60
2015,01,16,13,50,9.60
2015,01,16,13,51,9.60
2015,01,16,13,52,9.60
2015,01,16,13,53,9.60
2015,01,16,13,54,9.50
2015,01,16,13,55,9.50
2015,01,16,13,56,9.50
2015,01,16,13,57,9.50
2015,01,16,13,58,9.50
2015,01,16,13,59,9.50
2015,01,16,14,00,9.40
2015,01,16,14,01,9.40
2015,01,16,14,02,9.40
2015,01,16,14,03,9.40
2015,01,16,14,04,9.50
2015,01,16,14,05,9.50
2015,01,16,14,06,9.50
2015,01,16,14,07,9.50
2015,01,16,14,08,9.50
2015,01,16,14,09,9.50
2015,01,16,14,10,9.50
2015,01,16,14,11,9.50
2015,01,16,14,12,9.60
2015,01,16,14,13,9.60
2015,01,16,14,14,9.60
2015,01,16,14,15,9.60
2015,01,16,14,16,9.60
2015,01,16,14,17,9.70
2015,01,16,14,18,9.70
2015,01,16,14,19,9.70
2015,01,16,14,20,9.70
2015,01,16,14,21,9.70
2015,01,16,14,22,9.70
2015,01,16,14,23,9.70
2015,01,16,14,24,9.70
2015,01,16,14,25,9.80
2015,01,16,14,26,9.80
2015,01,16,14,27,9.70
2015,01,16,14,28,9.70
2015,01,16,14,29,9.70
2015,01,16,14,30,9.70
2015,01,16,14,31,9.70
2015,01,16,14,32,9.70
2015,01,16,14,33,9.70
2015,01,16,14,34,9.60
2015,01,16,14,35,9.60
2015,01,16,14,36,9.60
2015,01,16,14,37,9.60
2015,01,16,14,38,9.60
2015,01,16,14,39,9.60
2015,01,16,14,40,9.60
2015,01,16,14,41,9.60
2015,01,16,14,42,9.50
2015,01,16,14,43,9.50
2015,01,16,14,44,9.50
2015,01,16,14,45,9.50
2015,01,16,14,46,9.50
2015,01,16,14,47,9.50
2015,01,16,14,48,9.50
2015,01,16,14,49,9.50
2015,01,16,14,50,9.50
2015,01,16,14,51,9.50
2015,01,16,14,52,9.50
2015,01,16,14,53,9.50
2015,01,16,14,54,9.50
2015,01,16,14,55,9.50
2015,01,16,14,56,9.60
2015,01,16,14,57,9.60
2015,01,16,14,58,9.60
2015,01,16,14,59,9.60
2015,01,16,15,00,9.60
2015,01,16,15,01,9.60
2015,01,16,15,02,9.60
2015,01,16,15,03,9.60
2015,01,16,15,04,9.60
2015,01,16,15,05,9.60
2015,01,16,15,06,9.50
2015,01,16,15,07,9.50
2015,01,16,15,08,9.50
2015,01,16,15,09,9.40
2015,01,16,15,10,9.40
2015,01,16,15,11,9.40
2015,01,16,15,12,9.30
2015,01,16,15,13,9.30
2015,01,16,15,14,9.30
2015,01,16,15,15,9.30
2015,01,16,15,16,9.30
2015,01,16,15,17,9.20
2015,01,16,15,18,9.20
2015,01,16,15,19,9.20
2015,01,16,15,20,9.20
2015,01,16,15,21,9.10
2015,01,16,15,22,9.10
2015,01,16,15,23,9.10
2015,01,16,15,24,9.10
2015,01,16,15,25,9.00
2015,01,16,15,26,9.00
2015,01,16,15,27,9.00
2015,01,16,15,28,8.90
2015,01,16,15,29,8.90
2015,01,16,15,30,8.90
2015,01,16,15,31,8.90
2015,01,16,15,32,8.80
2015,01,16,15,33,8.80
2015,01,16,15,34,8.80
2015,01,16,15,35,8.80
2015,01,16,15,36,8.80
2015,01,16,15,37,8.80
2015,01,16,15,38,8.80
2015,01,16,15,39,8.70
2015,01,16,15,40,8.70
2015,01,16,15,41,8.70
2015,01,16,15,42,8.70
2015,01,16,15,43,8.70
2015,01,16,15,44,8.60
2015,01,16,15,45,8.60
2015,01,16,15,46,8.60
2015,01,16,15,47,8.60
2015,01,16,15,48,8.60
2015,01,16,15,49,8.50
2015,01,16,15,50,8.50
2015,01,16,15,51,8.50
2015,01,16,15,52,8.40
2015,01,16,15,53,8.40
2015,01,16,15,54,8.40
2015,01,16,15,55,8.40
2015,01,16,15,56,8.40
2015,01,16,15,57,8.40
2015,01,16,15,58,8.30
2015,01,16,15,59,8.30
2015,01,16,16,00,8.30
2015,01,16,16,01,8.30
2015,01,16,16,02,8.30
2015,01,16,16,03,8.30
2015,01,16,16,04,8.30
2015,01,16,16,05,8.20
2015,01,16,16,06,8.20
2015,01,16,16,07,8.20
2015,01,16,16,08,8.20
2015,01,16,16,09,8.10
2015,01,16,16,10,8.10
2015,01,16,16,11,8.00
2015,01,16,16,12,8.00
2015,01,16,16,13,7.90
2015,01,16,16,14,7.90
2015,01,16,16,15,7.80
2015,01,16,16,16,7.80
2015,01,16,16,17,7.70
2015,01,16,16,18,7.70
2015,01,16,16,19,7.60
2015,01,16,16,20,7.60
2015,01,16,16,21,7.50
2015,01,16,16,22,7.50
2015,01,16,16,23,7.40
2015,01,16,16,24,7.40
2015,01,16,16,25,7.30
2015,01,16,16,26,7.30
2015,01,16,16,27,7.30
2015,01,16,16,28,7.20
2015,01,16,16,29,7.20
2015,01,16,16,30,7.10
2015,01,16,16,31,7.10
2015,01,16,16,32,7.00
2015,01,16,16,33,7.00
2015,01,16,16,34,6.90
2015,01,16,16,35,6.90
2015,01,16,16,36,6.80
2015,01,16,16,37,6.80
2015,01,16,16,38,6.70
2015,01,16,16,39,6.70
2015,01,16,16,40,6.70
2015,01,16,16,41,6.60
2015,01,16,16,42,6.60
2015,01,16,16,43,6.50
2015,01,16,16,44,6.50
2015,01,16,16,45,6.50
2015,01,16,16,46,6.40
2015,01,16,16,47,6.40
2015,01,16,16,48,6.30
2015,01,16,16,49,6.30
2015,01,16,16,50,6.30
2015,01,16,16,51,6.30
2015,01,16,16,52,6.20
2015,01,16,16,53,6.20
2015,01,16,16,54,6.20
2015,01,16,16,55,6.20
2015,01,16,16,56,6.20
2015,01,16,16,57,6.10
2015,01,16,16,58,6.10
2015,01,16,16,59,6.00
2015,01,16,17,00,6.00
2015,01,16,17,01,5.90
2015,01,16,17,02,5.80
2015,01,16,17,03,5.80
2015,01,16,17,04,5.80
2015,01,16,17,05,5.80
2015,01,16,17,06,5.70
2015,01,16,17,07,5.70
2015,01,16,17,08,5.70
2015,01,16,17,09,5.70
2015,01,16,17,10,5.60
2015,01,16,17,11,5.60
2015,01,16,17,12,5.60
2015,01,16,17,13,5.60
2015,01,16,17,14,5.50
2015,01,16,17,15,5.50
2015,01,16,17,16,5.50
2015,01,16,17,17,5.40
2015,01,16,17,18,5.40
2015,01,16,17,19,5.40
2015,01,16,17,20,5.40
2015,01,16,17,21,5.40
2015,01,16,17,22,5.40
2015,01,16,17,23,5.30
2015,01,16,17,24,5.30
2015,01,16,17,25,5.30
2015,01,16,17,26,5.30
2015,01,16,17,27,5.30
2015,01,16,17,28,5.30
2015,01,16,17,29,5.20
2015,01,16,17,30,5.20
2015,01,16,17,31,5.20
2015,01,16,17,32,5.20
2015,01,16,17,33,5.10
2015,01,16,17,34,5.10
2015,01,16,17,35,5.00
2015,01,16,17,36,5.00
2015,01,16,17,37,4.90
2015,01,16,17,38,4.80
2015,01,16,17,39,4.80
2015,01,16,17,40,4.70
2015,01,16,17,41,4.70
2015,01,16,17,42,4.70
2015,01,16,17,43,4.70
2015,01,16,17,44,4.60
2015,01,16,17,45,4.60
2015,01,16,17,46,4.60
2015,01,16,17,47,4.60
2015,01,16,17,48,4.60
2015,01,16,17,49,4.50
2015,01,16,17,50,4.50
2015,01,16,17,51,4.50
2015,01,16,17,52,4.40
2015,01,16,17,53,4.40
2015,01,16,17,54,4.40
2015,01,16,17,55,4.40
2015,01,16,17,56,4.30
2015,01,16,17,57,4.30
2015,01,16,17,58,4.30
2015,01,16,17,59,4.30
2015,01,16,18,00,4.30
2015,01,16,18,01,4.30
2015,01,16,18,02,4.30
2015,01,16,18,03,4.20
2015,01,16,18,04,4.20
2015,01,16,18,05,4.20
2015,01,16,18,06,4.20